TimePDT,TemperatureF,Dew PointF,Humidity,Sea Level PressureIn,VisibilityMPH,Wind Direction,Wind SpeedMPH,Gust SpeedMPH,PrecipitationIn,Events,Conditions,WindDirDegrees,DateUTC
12:52 AM,87.1,68.0,53,29.80,10.0,South,15.0,21.9,N/A,,Clear,180,2013-07-10 07:52:00
1:52 AM,87.1,68.0,53,29.83,10.0,South,18.4,25.3,N/A,,Clear,170,2013-07-10 08:52:00
2:52 AM,87.1,69.1,55,29.86,10.0,South,24.2,-,N/A,,Clear,190,2013-07-10 09:52:00
3:52 AM,86.0,69.1,57,29.87,9.0,South,25.3,32.2,N/A,,Clear,190,2013-07-10 10:52:00
4:26 AM,84.2,69.8,62,29.90,5.0,South,15.0,-,N/A,,Haze,180,2013-07-10 11:26:00
4:50 AM,84.2,69.8,62,29.91,5.0,South,5.8,-,N/A,,Haze,170,2013-07-10 11:50:00
4:52 AM,84.0,71.1,65,29.89,5.0,South,5.8,-,N/A,,Haze,170,2013-07-10 11:52:00
5:52 AM,84.0,71.1,65,29.88,6.0,SW,5.8,-,N/A,,Haze,230,2013-07-10 12:52:00
6:52 AM,86.0,68.0,55,29.89,9.0,South,8.1,-,N/A,,Clear,190,2013-07-10 13:52:00
7:52 AM,84.0,70.0,63,29.89,3.0,SSE,10.4,-,N/A,,Haze,160,2013-07-10 14:52:00
8:52 AM,87.1,69.1,55,29.89,6.0,South,10.4,-,N/A,,Haze,170,2013-07-10 15:52:00
9:52 AM,88.0,69.1,53,29.89,9.0,SSE,8.1,-,N/A,,Clear,160,2013-07-10 16:52:00
10:52 AM,93.0,68.0,44,29.88,10.0,South,11.5,-,N/A,,Clear,180,2013-07-10 17:52:00
11:52 AM,96.1,68.0,40,29.87,10.0,SSE,16.1,-,N/A,,Unknown,150,2013-07-10 18:52:00
12:52 PM,97.0,68.0,39,29.85,10.0,SSE,17.3,-,N/A,,Clear,160,2013-07-10 19:52:00
1:52 PM,99.0,68.0,36,29.82,10.0,South,16.1,33.4,N/A,,Clear,190,2013-07-10 20:52:00
2:52 PM,100.9,69.1,36,29.79,10.0,SSE,18.4,25.3,N/A,,Clear,160,2013-07-10 21:52:00
3:52 PM,102.0,66.0,31,29.77,10.0,South,17.3,23.0,N/A,,Clear,170,2013-07-10 22:52:00
4:52 PM,102.0,63.0,28,29.74,10.0,South,18.4,28.8,N/A,,Clear,170,2013-07-10 23:52:00
5:52 PM,100.9,62.1,28,29.73,10.0,South,15.0,-,N/A,,Clear,180,2013-07-11 00:52:00
6:52 PM,97.0,66.0,36,29.74,10.0,South,17.3,-,N/A,,Clear,180,2013-07-11 01:52:00
7:52 PM,95.0,64.9,37,29.75,10.0,South,15.0,-,N/A,,Clear,180,2013-07-11 02:52:00
8:52 PM,93.9,63.0,36,29.76,10.0,South,13.8,-,N/A,,Clear,190,2013-07-11 03:52:00
9:52 PM,91.0,64.0,41,29.79,10.0,South,9.2,-,N/A,,Clear,170,2013-07-11 04:52:00
10:52 PM,89.1,64.9,45,29.80,10.0,South,12.7,-,N/A,,Clear,190,2013-07-11 05:52:00
11:52 PM,90.0,64.9,43,29.79,10.0,South,13.8,-,N/A,,Clear,180,2013-07-11 06:52:00